"TOA5","AWS1","CR1000","7964","CR1000.Std.14","CPU:AWS1_114.CR1","64363","TBL110"
"TIMESTAMP","RECORD","Wind_spd_WVc(1)","Wind_spd_WVc(2)","Air_Temp_Avg","Humidity_Avg","SW_upper_Wm2_Avg","Rain_Tot","Press_Avg","Issui_Tot","Depth_cm","SR50A_Raw","Quality","Ground_Temp_Avg(1)","Ground_Temp_Avg(2)","SW_lower_Wm2_Avg","Albedo_Avg","SWC_per(1)","SWC_per(2)","Period(1)","Period(2)"
"TS","RN","","","","","","","","","","","","","","","","","","",""
"","","WVc","WVc","Avg","Avg","Avg","Tot","Avg","Tot","Smp","Smp","Smp","Avg","Avg","Avg","Avg","Smp","Smp","Smp","Smp"
"2018-01-11 00:00:00",322765,0.048,343.5,-7.018,91.2,0,0,855.1816,0,59.01,2.624,192,1.46,2.319,0.1744976,0,53.11,61.22,34.06,35.96
"2018-01-11 00:10:00",322766,0.185,317.1,-7.116,92.6,0,0,855.0319,0,56.94,2.645,200,1.46,2.322,0.03414084,0,53.11,61.22,34.06,35.96
"2018-01-11 00:20:00",322767,0,319.1,-7.048,92.8,0,0,855.1268,0,59.21,2.622,200,1.46,2.323,0.003793427,0,53.11,61.22,34.06,35.96
"2018-01-11 00:30:00",322768,0.064,333.1,-7.129,93.6,0,0,855.0382,0,59.55,2.619,200,1.463,2.321,0,0,53.11,61.22,34.06,35.96
"2018-01-11 00:40:00",322769,0,0,-7.061,94.2,0,0,855.1141,0,60,2.614,198,1.467,2.315,0.02655399,0,53.11,61.22,34.06,35.96
"2018-01-11 00:50:00",322770,0.133,30.75,-7.053,94.4,0,0,855.0403,0.5,60.1,2.613,186,1.463,2.307,0.2124319,0,53.11,61.22,34.06,35.96
"2018-01-11 01:00:00",322771,0.226,342.4,-7.094,94.9,0,0.5,855.1014,0,59.55,2.619,203,1.467,2.322,0.03034742,0,53.16,61.22,34.07,35.96
"2018-01-11 01:10:00",322772,0.137,45.58,-7.228,95.1,0.0590147,0,855.2806,0,60.22,2.613,194,1.47,2.317,0,0,53.11,61.28,34.06,35.97
"2018-01-11 01:20:00",322773,0,54.11,-7.291,95.2,0.2281902,0,855.2596,0,60.58,2.609,191,1.47,2.307,0,0,53.11,61.22,34.06,35.96
"2018-01-11 01:30:00",322774,0.057,21.44,-7.283,94.8,0.04327745,0,855.3018,0,60.52,2.61,174,1.47,2.307,0,0,53.11,61.22,34.06,35.96
"2018-01-11 01:40:00",322775,0.005,33.02,-7.319,94.6,0.1573725,0,855.4684,0,60.44,2.611,187,1.47,2.293,0,0,53.11,61.22,34.06,35.96
"2018-01-11 01:50:00",322776,0.249,29.97,-7.488,94.3,0.2360588,0,855.5295,0,59.54,2.621,196,1.468,2.289,0,0,53.11,61.22,34.06,35.96
"2018-01-11 02:00:00",322777,0.034,59.61,-7.469,93.9,0.2360588,0,855.5316,0,59.83,2.618,186,1.464,2.292,0,0,53.11,61.16,34.06,35.94
"2018-01-11 02:10:00",322778,0.192,35.83,-7.602,94.1,0.2360588,0,855.4008,0,59.95,2.617,193,1.467,2.286,0,0,53.11,61.16,34.06,35.94
"2018-01-11 02:20:00",322779,0.248,45.95,-7.631,93.9,0.1967157,0,855.5338,0,60,2.617,196,1.472,2.282,0,0,53.11,61.16,34.06,35.94
"2018-01-11 02:30:00",322780,0.102,17.88,-7.698,94.1,0.1337667,0,855.538,0,60.21,2.615,198,1.469,2.292,0,0,53.05,61.22,34.04,35.96
"2018-01-11 02:40:00",322781,0.076,74.88,-7.693,94.4,0.03540882,0,855.5421,0,60.19,2.615,197,1.478,2.299,0,0,53.05,61.22,34.04,35.96
"2018-01-11 02:50:00",322782,0.021,40.46,-7.657,94.5,0,0,855.5485,0,60.69,2.61,232,1.484,2.31,0.01896713,0,53.11,61.16,34.06,35.94
"2018-01-11 03:00:00",322783,0.083,33.09,-7.661,94.5,0,0,855.5421,0,57.67,2.641,282,1.49,2.309,0,0,53.05,61.22,34.04,35.96
"2018-01-11 03:10:00",322784,0.225,37.52,-7.769,93.9,0.09442353,0,855.538,0,59.29,2.625,237,1.501,2.317,0,0,53.11,61.22,34.06,35.96
"2018-01-11 03:20:00",322785,0.276,9.6,-7.905,93.4,0.2360588,0,855.481,0,59.41,2.624,232,1.488,2.315,0,0,53.11,61.22,34.06,35.96
"2018-01-11 03:30:00",322786,0.251,42.2,-7.903,93.1,0.03934313,0,855.5063,0,59.73,2.621,278,1.478,2.303,0,0,53.05,61.22,34.04,35.96
"2018-01-11 03:40:00",322787,0.247,49.46,-7.927,93.1,0,0,855.538,0,59.38,2.625,249,1.522,2.31,0,0,53.05,61.22,34.04,35.96
"2018-01-11 03:50:00",322788,0.306,44.56,-7.993,93.1,0,0,855.538,0,59.28,2.626,238,1.529,2.318,0,0,53.05,61.22,34.04,35.96
"2018-01-11 04:00:00",322789,0.072,45.92,-8.03,92.3,0.003934314,0,855.5421,0,59,2.629,228,1.513,2.307,0,0,53.11,61.22,34.06,35.96
"2018-01-11 04:10:00",322790,0.482,52.39,-8.08,91.7,0,0,855.5612,0,59.4,2.625,275,1.496,2.312,0,0,53.05,61.22,34.04,35.96
"2018-01-11 04:20:00",322791,0.301,89.4,-8.12,91.8,0,0,855.6286,0,58.87,2.631,203,1.455,2.3,0,0,53.11,61.22,34.06,35.96
"2018-01-11 04:30:00",322792,0.326,47.84,-8.13,91.6,0,0,855.7677,0,58.73,2.632,202,1.449,2.301,0,0,53.05,61.22,34.04,35.96
"2018-01-11 04:40:00",322793,0.257,54.57,-8.17,91.4,0.003934314,0,855.791,0,58.67,2.633,202,1.427,2.286,0,0,53.05,61.16,34.04,35.94
"2018-01-11 04:50:00",322794,0.067,73.06,-8.26,91.1,0,0,855.791,0,58.46,2.636,202,1.416,2.276,0,0,53.11,61.16,34.06,35.94
"2018-01-11 05:00:00",322795,0.455,93.2,-8.36,90.9,0,0,855.9301,0,58.97,2.631,200,1.407,2.28,0,0,53.11,61.16,34.06,35.94
"2018-01-11 05:10:00",322796,0.287,72.85,-8.46,90.8,0.03934369,0,856.0439,0,58.94,2.632,198,1.392,2.267,0,0,53.11,61.16,34.06,35.94
"2018-01-11 05:20:00",322797,0.626,79.09,-8.47,91.3,0,0,855.9006,0,59.13,2.63,198,1.39,2.244,0.01138049,0,53.05,61.16,34.04,35.94
"2018-01-11 05:30:00",322798,0.425,52.78,-8.65,90.3,0.3068932,0,855.9343,0,59.21,2.63,198,1.391,2.239,0,0,53.11,61.16,34.06,35.94
"2018-01-11 05:40:00",322799,0.113,39.61,-8.84,89.8,0.302966,0,856.0479,0,58.92,2.634,193,1.395,2.237,0,0,53.05,61.16,34.04,35.94
"2018-01-11 05:50:00",322800,0.242,77.73,-8.87,90.4,0.02360844,0,856.0568,0,58.81,2.635,198,1.407,2.24,0.1138193,0,53.11,61.16,34.06,35.94
"2018-01-11 06:00:00",322801,0.212,55.51,-8.81,90,0,0,856.2139,0,58.57,2.637,188,1.424,2.258,0.003794065,0,53.05,61.16,34.04,35.94
"2018-01-11 06:10:00",322802,0.4,83.7,-8.73,89.4,0,0,856.3845,0.5,58.72,2.635,197,1.437,2.269,0.1783354,0,53.05,61.16,34.04,35.94
"2018-01-11 06:20:00",322803,0.507,73.56,-8.68,88.7,0,0,856.5717,0,58.51,2.637,193,1.452,2.286,0.2276719,0,53.05,61.16,34.04,35.94
"2018-01-11 06:30:00",322804,0.404,73.95,-8.72,88.7,0,0,856.6052,0,58.48,2.638,192,1.47,2.29,0.01517846,0,53.05,61.16,34.04,35.94
"2018-01-11 06:40:00",322805,0.508,87.1,-8.82,88,0,0,856.6221,0,58.38,2.639,193,1.492,2.297,0.07209945,0,53.05,61.16,34.04,35.94
"2018-01-11 06:50:00",322806,0.379,66.03,-8.79,88.2,0,0,856.6439,0,58.26,2.64,198,1.498,2.308,0.227683,0,53.05,61.16,34.04,35.94
"2018-01-11 07:00:00",322807,0.54,54.09,-8.81,88.9,0.02361395,0,856.7507,0,58.22,2.641,197,1.495,2.312,0.5616189,0.289,53.05,61.16,34.04,35.94
"2018-01-11 07:10:00",322808,0.567,63.01,-8.82,89.2,0.2440108,0,856.8775,0,58.16,2.641,195,1.503,2.311,1.404048,5.793,53.05,61.1,34.04,35.93
"2018-01-11 07:20:00",322809,0.362,36.89,-8.78,89,0.7792603,0,856.8945,0,59.16,2.631,195,1.495,2.322,3.597398,4.716,53.05,61.16,34.04,35.94
"2018-01-11 07:30:00",322810,0.568,50.56,-8.78,89.2,1.306639,0,856.9749,0,59.16,2.631,191,1.496,2.323,5.471991,4.214,53.05,61.1,34.04,35.93
"2018-01-11 07:40:00",322811,0.345,33.91,-8.76,89.1,2.947808,0,857.1002,0,59.42,2.628,198,1.497,2.324,11.76744,3.993,53.05,61.1,34.04,35.93
"2018-01-11 07:50:00",322812,0.521,52.12,-8.71,89.4,4.640141,0,857.1463,0,59.42,2.628,197,1.488,2.322,19.68702,4.264,53.05,61.1,34.04,35.93
"2018-01-11 08:00:00",322813,0.647,42.66,-8.64,89.9,7.584013,0,857.3063,0,58.78,2.634,237,1.476,2.321,32.20961,4.257,53.05,61.1,34.04,35.93
"2018-01-11 08:10:00",322814,0.445,54.17,-8.57,89.7,10.01625,0,857.5049,0,59.65,2.625,268,1.464,2.298,41.29039,4.122,53.05,61.1,34.04,35.93
"2018-01-11 08:20:00",322815,0.421,63.04,-8.46,88.5,13.91649,0,857.5767,0,60.35,2.617,337,1.462,2.285,58.1048,4.171,53,61.1,34.03,35.93
"2018-01-11 08:30:00",322816,0.376,40.95,-8.49,88.1,6.104206,0,857.5767,0,57.51,2.647,226,1.462,2.285,23.20094,3.774,53.05,61.1,34.04,35.93
"2018-01-11 08:40:00",322817,0.292,58.46,-8.58,88.7,9.65417,0,857.6505,0,57.95,2.642,218,1.462,2.285,37.21864,3.852,53.05,61.1,34.04,35.93
"2018-01-11 08:50:00",322818,0.482,61.66,-8.55,88.7,11.13791,0,857.8333,0,57.51,2.647,209,1.462,2.292,43.01319,3.853,53.05,61.1,34.04,35.93
"2018-01-11 09:00:00",322819,0.238,46.71,-8.47,88.9,15.92761,0,857.9755,0,57.4,2.647,205,1.462,2.293,64.63173,4.011,53.05,61.1,34.04,35.93
"2018-01-11 09:10:00",322820,0.497,93.6,-8.27,86.9,22.54737,0,858.1141,0,57.32,2.648,193,1.473,2.316,85.16112,3.73,53,61.1,34.03,35.93
"2018-01-11 09:20:00",322821,0.482,51.75,-8.32,85,24.37665,0,858.1448,0,57.67,2.643,198,1.467,2.311,86.75588,3.56,53.05,61.1,34.04,35.93
"2018-01-11 09:30:00",322822,0.495,79.58,-8.27,82.7,15.57961,0,858.3364,0,57.28,2.648,197,1.48,2.313,54.74444,3.494,53,61.1,34.03,35.93
"2018-01-11 09:40:00",322823,0.541,64.1,-8.29,80.1,28.32725,0,858.3621,0,57.32,2.647,197,1.477,2.301,109.923,3.875,53,61.04,34.03,35.92
"2018-01-11 09:50:00",322824,0.744,55.96,-8.35,80.1,20.59755,0,858.335,0,57.32,2.648,197,1.457,2.314,78.74562,3.793,53.05,61.1,34.04,35.93
"2018-01-11 10:00:00",322825,0.589,81.3,-8.15,80.2,31.45947,0,858.3219,0,57.12,2.647,198,1.468,2.322,117.5154,3.735,53.05,61.1,34.04,35.93
"2018-01-11 10:10:00",322826,0.49,39.38,-7.512,78.33,44.39514,0,858.3212,0,57.57,2.639,210,1.462,2.291,179.2105,4.034,53.05,61.1,34.04,35.93
"2018-01-11 10:20:00",322827,0.419,38.7,-7.249,76.17,33.44175,0,858.2663,0,57.21,2.644,211,1.46,2.264,127.6681,3.786,53.05,61.1,34.04,35.93
"2018-01-11 10:30:00",322828,0.471,353.9,-7.678,76.29,35.20034,0,858.2979,0,57.44,2.644,219,1.466,2.239,129.2118,3.672,53.05,61.04,34.04,35.92
"2018-01-11 10:40:00",322829,0.533,21.13,-7.851,77.07,30.4398,0,858.3211,0,57.48,2.643,210,1.484,2.238,107.9306,3.522,53.05,61.04,34.04,35.92
"2018-01-11 10:50:00",322830,0.426,7.924,-7.532,72.04,40.81066,0,858.3425,0,57.35,2.643,219,1.531,2.238,156.46,3.83,53,61.04,34.03,35.92
"2018-01-11 11:00:00",322831,0.687,72.6,-7.37,69.02,44.43727,0,858.293,0,58.3,2.633,236,1.513,2.233,165.049,3.737,53,61.04,34.03,35.92
"2018-01-11 11:10:00",322832,0.546,24.14,-6.977,67.28,58.76954,0,858.2367,0,58.21,2.628,211,1.522,2.223,271.7438,4.63,53,61.04,34.03,35.92
"2018-01-11 11:20:00",322833,0.623,47.64,-6.517,65.36,46.44436,0,858.0179,0,58.39,2.628,213,1.502,2.196,211.6783,4.464,53,61.04,34.03,35.92
"2018-01-11 11:30:00",322834,0.459,26.07,-6.439,64.98,97.49479,0,857.9789,0,58.54,2.624,210,1.46,2.246,302.6033,3.155,53.05,61.04,34.04,35.92
"2018-01-11 11:40:00",322835,0.607,352.5,-6.244,61.9,87.01999,0,857.9482,0,59.05,2.621,272,1.385,2.24,278.4049,3.32,53.05,61.04,34.04,35.92
"2018-01-11 11:50:00",322836,0.539,324.9,-6.506,66.06,84.1381,0,857.7991,0,58.67,2.623,253,1.45,2.197,264.8501,3.194,53.05,61.04,34.04,35.92
"2018-01-11 12:00:00",322837,0.512,9.92,-6.784,66.81,22.15153,0,857.6453,0,58.25,2.633,219,1.509,2.178,70.6572,3.169,53,61.04,34.03,35.92
"2018-01-11 12:10:00",322838,0.414,323.3,-7.724,69.61,27.07948,0,857.4501,0,58.57,2.632,201,1.475,2.136,85.79028,3.169,53.05,61.04,34.04,35.92
"2018-01-11 12:20:00",322839,0.304,17.85,-7.588,71.44,27.56934,0,857.3824,0,58.65,2.63,206,1.456,2.126,98.85638,3.556,53,61.04,34.03,35.92
"2018-01-11 12:30:00",322840,0.625,54.41,-7.08,71.65,76.14842,0,857.3854,0,58.62,2.625,206,1.455,2.141,257.817,3.415,53,61.04,34.03,35.92
"2018-01-11 12:40:00",322841,0.512,22.66,-6.284,67.28,85.64682,0,857.3809,0,58.47,2.624,205,1.456,2.12,273.1913,3.275,53,61.04,34.03,35.92
"2018-01-11 12:50:00",322842,0.586,49.21,-6.492,64.63,36.52486,0,857.3851,0,59.08,2.622,203,1.455,2.191,123.8581,3.358,53,61.04,34.03,35.92
"2018-01-11 13:00:00",322843,0.725,58.58,-6.867,66.8,40.34638,0,857.3702,0,59.22,2.621,198,1.455,2.231,126.1629,3.213,53,61.04,34.03,35.92
"2018-01-11 13:10:00",322844,0.319,327.4,-7.295,74.13,17.3896,0,857.3423,0,59.15,2.626,197,1.455,2.171,56.42284,3.232,53,61.04,34.03,35.92
"2018-01-11 13:20:00",322845,0.252,340.1,-7.864,77.11,16.44994,0,857.3398,0,59.09,2.627,195,1.455,2.145,54.14455,3.147,53,61.04,34.03,35.92
"2018-01-11 13:30:00",322846,0.369,8.76,-7.879,75.73,17.72379,0,857.4166,0,59.1,2.628,196,1.437,2.147,62.3593,3.506,53,61.04,34.03,35.92
"2018-01-11 13:40:00",322847,0.35,5.724,-7.981,75.79,20.89268,0,857.6298,0,59.16,2.627,196,1.357,2.147,77.95102,3.714,53,60.98,34.03,35.9
"2018-01-11 13:50:00",322848,0.325,343.1,-7.97,73.58,25.87012,0,857.6506,0,58.91,2.631,192,1.338,2.147,74.34592,2.943,53,61.04,34.03,35.92
"2018-01-11 14:00:00",322849,0.28,346.6,-8.33,72.96,14.52344,0,857.6627,0,59.04,2.631,196,1.366,2.147,42.48772,2.931,53,60.98,34.03,35.9
"2018-01-11 14:10:00",322850,0.197,339,-8.61,74.64,11.94429,0,857.8105,0,59.02,2.632,196,1.369,2.173,38.27989,3.199,53.05,60.98,34.04,35.9
"2018-01-11 14:20:00",322851,0.282,273.2,-8.59,76.97,17.58618,0,857.9666,0,58.94,2.632,195,1.369,2.221,63.73916,3.55,53,60.98,34.03,35.9
"2018-01-11 14:30:00",322852,0.145,285.6,-8.5,76.39,16.07651,0,858.1267,0,58.79,2.633,195,1.37,2.173,57.15852,3.58,53,60.98,34.03,35.9
"2018-01-11 14:40:00",322853,0.238,315.4,-8.47,73.49,16.2662,0,858.1561,0,58.88,2.632,197,1.394,2.162,58.89447,3.604,52.94,60.98,34.02,35.9
"2018-01-11 14:50:00",322854,0.18,288.6,-8.47,73.44,13.61383,0,858.243,0,59.18,2.629,195,1.456,2.184,48.87295,3.589,53,60.98,34.03,35.9
"2018-01-11 15:00:00",322855,0.333,321.8,-8.47,70.91,8.864343,0,858.4298,0,58.97,2.633,197,1.513,2.17,30.35402,3.368,53,60.98,34.03,35.9
"2018-01-11 15:10:00",322856,0.531,40.08,-8.41,71.14,15.04327,0,858.5137,0,58.81,2.632,196,1.532,2.149,58.91701,3.801,53,60.98,34.03,35.9
"2018-01-11 15:20:00",322857,0.392,20.83,-8.54,71.38,8.723275,0,858.4898,0,58.88,2.633,192,1.513,2.163,29.3623,3.36,53,60.98,34.03,35.9
"2018-01-11 15:30:00",322858,0.404,64.44,-8.45,70.42,13.61592,0,858.5185,0,58.95,2.631,190,1.485,2.188,54.4549,3.987,53,60.98,34.03,35.9
"2018-01-11 15:40:00",322859,0.481,49.54,-8.41,66.42,6.678179,0,858.4851,0,58.74,2.634,197,1.465,2.19,22.34702,3.324,52.94,60.98,34.02,35.9
"2018-01-11 15:50:00",322860,0.2,6.215,-8.82,68.32,5.679207,0,858.5273,0,58.88,2.635,195,1.402,2.216,17.61444,3.092,53,60.98,34.03,35.9
"2018-01-11 16:00:00",322861,0.208,24.38,-9.01,70.36,7.441177,0,858.6474,0,58.81,2.635,194,1.371,2.234,28.74435,3.842,52.94,60.98,34.02,35.9
"2018-01-11 16:10:00",322862,0.281,22.75,-8.79,72.05,5.596614,0,858.719,0,58.71,2.636,197,1.371,2.234,25.93059,4.56,52.94,61.04,34.02,35.92
"2018-01-11 16:20:00",322863,0.296,26.28,-8.97,71.33,3.991963,0,858.738,0,58.78,2.636,195,1.375,2.23,14.99408,3.668,52.94,60.98,34.02,35.9
"2018-01-11 16:30:00",322864,0.469,42.28,-8.81,70.31,6.524856,0,858.7527,0,58.61,2.637,187,1.38,2.224,30.75445,4.557,52.94,60.98,34.02,35.9
"2018-01-11 16:40:00",322865,0.376,20.54,-9.07,70.88,2.654929,0,858.9109,0,58.66,2.639,177,1.402,2.219,8.858977,3.163,53,60.98,34.03,35.9
"2018-01-11 16:50:00",322866,0.102,14.97,-9.55,75.24,1.376704,0,858.8715,0,58.8,2.639,184,1.479,2.259,2.154182,1.523,52.94,60.92,34.02,35.89
"2018-01-11 17:00:00",322867,0.156,21.32,-9.94,76.34,0.5153049,0,858.8019,0,58.58,2.644,178,1.468,2.259,0.405821,0.573,52.94,60.92,34.02,35.89
"2018-01-11 17:10:00",322868,0.101,23.79,-10.23,77.63,0.02753635,0,858.8682,0,58.6,2.645,171,1.384,2.218,0,0,52.94,60.92,34.02,35.89
"2018-01-11 17:20:00",322869,0.181,40.45,-10.42,78.69,0,0,858.8372,0,58.64,2.645,182,1.379,2.226,0,0,52.94,60.98,34.02,35.9
"2018-01-11 17:30:00",322870,0.271,11.48,-10.6,80.5,0,0,859.0209,0,58.76,2.645,187,1.413,2.231,0,0,52.94,60.92,34.02,35.89
"2018-01-11 17:40:00",322871,0.344,32.56,-10.69,82.8,0,0,859.0795,0,58.52,2.647,182,1.437,2.235,0,0,52.94,60.92,34.02,35.89
"2018-01-11 17:50:00",322872,0.158,78.79,-10.69,82.8,0,0,859.0926,0,58.57,2.647,186,1.457,2.219,0.02655393,0,52.94,60.98,34.02,35.9
"2018-01-11 18:00:00",322873,0.261,37.53,-10.63,84.2,0,0,859.2698,0,58.59,2.645,178,1.458,2.209,0.40969,0,53,60.92,34.03,35.89
"2018-01-11 18:10:00",322874,0.21,42.58,-10.49,84.7,0,0,859.3162,0,58.58,2.645,190,1.466,2.203,0.4210882,0,52.94,60.92,34.02,35.89
"2018-01-11 18:20:00",322875,0.064,21.79,-10.27,85.7,0,0,859.3602,0,58.47,2.645,196,1.487,2.22,0.724624,0,53,60.92,34.03,35.89
"2018-01-11 18:30:00",322876,0.122,28.15,-10.12,86.6,0,0,859.4584,0,58.06,2.649,200,1.513,2.248,0.512216,0,52.94,60.92,34.02,35.89
"2018-01-11 18:40:00",322877,0,0,-10.1,87.6,0,0,859.6429,0,58.11,2.648,202,1.532,2.269,0.4401684,0,52.94,60.92,34.02,35.89
"2018-01-11 18:50:00",322878,0,0,-9.99,88.1,0,0,859.6689,0,57.77,2.651,199,1.542,2.278,0.5957609,0,52.94,60.92,34.02,35.89
"2018-01-11 19:00:00",322879,0.069,41.35,-10.02,89.2,0,0,859.6743,0,57.62,2.653,199,1.546,2.281,0.318755,0,52.94,60.92,34.02,35.89
"2018-01-11 19:10:00",322880,0.169,77.45,-10.26,89.9,0.1220053,0,859.7342,0,57.71,2.654,197,1.547,2.281,0,0,52.94,60.86,34.02,35.88
"2018-01-11 19:20:00",322881,0.172,49.14,-10.61,88.7,0.4683432,0,859.9094,0,57.63,2.657,196,1.545,2.281,0,0,52.94,60.92,34.02,35.89
"2018-01-11 19:30:00",322882,0.172,65.9,-10.97,86.6,0.4132441,0,859.9284,0,58.07,2.654,197,1.517,2.284,0,0,52.94,60.92,34.02,35.89
"2018-01-11 19:40:00",322883,0.337,126.9,-10.99,87.3,0.003935658,0,859.941,0,57.83,2.655,197,1.505,2.299,0.05312613,0,52.94,60.92,34.02,35.89
"2018-01-11 19:50:00",322884,0.638,90.6,-10.95,87.3,0.02754961,0,859.9347,0,58.13,2.653,197,1.504,2.265,0.03035779,0,52.94,60.86,34.02,35.88
"2018-01-11 20:00:00",322885,0.381,106.3,-11.13,84.8,0.1574263,0,859.9811,0,57.87,2.657,200,1.504,2.255,0,0,52.94,60.86,34.02,35.88
"2018-01-11 20:10:00",322886,0.421,157.2,-11.17,84.8,0,0,859.9284,0,57.74,2.657,198,1.504,2.242,0.08348391,0,52.94,60.92,34.02,35.89
"2018-01-11 20:20:00",322887,0.751,164.2,-10.94,81.3,0,0,859.8883,0,57.61,2.657,189,1.504,2.257,0.13661,0,52.94,60.86,34.02,35.88
"2018-01-11 20:30:00",322888,0.63,129.8,-10.93,79.83,0,0,859.8334,0,57.69,2.657,198,1.504,2.267,0.09486808,0,52.88,60.86,34,35.88
"2018-01-11 20:40:00",322889,0.551,100.6,-11.14,80.2,0,0,859.9262,0,57.72,2.657,184,1.504,2.274,0.03415251,0,52.94,60.86,34.02,35.88
"2018-01-11 20:50:00",322890,0.273,58.87,-10.97,80.7,0,0,860.1393,0,57.76,2.657,199,1.504,2.281,0.09866281,0,52.94,60.92,34.02,35.89
"2018-01-11 21:00:00",322891,0.433,102.9,-11.11,80.5,0.09052372,0,860.1815,0,56.68,2.669,201,1.518,2.289,0.01138501,0,52.94,60.86,34.02,35.88
"2018-01-11 21:10:00",322892,0.416,151.6,-11.25,81.3,0,0,860.2321,0,56.29,2.672,196,1.535,2.28,0.003795278,0,52.94,60.92,34.02,35.89
"2018-01-11 21:20:00",322893,0.663,134.4,-11.08,82.6,0,0,860.1097,0,56.21,2.673,196,1.549,2.274,0.1480186,0,52.94,60.92,34.02,35.89
"2018-01-11 21:30:00",322894,0.463,128.3,-11.23,83.8,0.007873043,0,860.1351,0,56.17,2.674,203,1.545,2.272,0,0,52.94,60.86,34.02,35.88
"2018-01-11 21:40:00",322895,0.487,87.5,-11.33,84.6,0.1417212,0,860.1878,0,56.37,2.673,198,1.534,2.274,0,0,52.88,60.86,34,35.88
"2018-01-11 21:50:00",322896,0.694,125.9,-11.36,84.9,0.03543045,0,860.1815,0,56.79,2.668,186,1.508,2.273,0.04934555,0,52.94,60.92,34.02,35.89
"2018-01-11 22:00:00",322897,0.796,137.7,-11.28,85,0,0,860.0908,0,56.25,2.674,207,1.491,2.281,0.02277548,0,52.94,60.86,34.02,35.88
"2018-01-11 22:10:00",322898,0.482,137.2,-11.39,84.4,0.1102347,0,860.1224,0,56.45,2.671,196,1.48,2.283,0.07591994,0,52.94,60.8,34.02,35.86
"2018-01-11 22:20:00",322899,0.841,157.2,-11.11,83.1,0,0,860.1815,0,56.56,2.669,204,1.481,2.286,0.2277606,0,52.94,60.8,34.02,35.86
"2018-01-11 22:30:00",322900,0.804,144.7,-11.18,82.9,0,0,860.1858,0,56.65,2.669,193,1.482,2.285,0.003796015,0,52.94,60.86,34.02,35.88
"2018-01-11 22:40:00",322901,0.713,132.9,-11.21,83.2,0,0,860.1837,0,56.75,2.668,194,1.488,2.285,0,0,52.88,60.86,34,35.88
"2018-01-11 22:50:00",322902,0.547,126.3,-11.25,83,0.1417321,0,860.186,0,56.77,2.668,197,1.505,2.285,0,0,52.88,60.86,34,35.88
"2018-01-11 23:00:00",322903,0.557,145.7,-11.25,83,0,0,859.9823,0,56.75,2.668,197,1.506,2.285,0,0,52.94,60.8,34.02,35.86
"2018-01-11 23:10:00",322904,0.614,135.3,-11.23,83.3,0,0,859.9691,0,56.75,2.668,209,1.506,2.285,0.04934826,0,52.88,60.8,34,35.86
"2018-01-11 23:20:00",322905,0.714,145.9,-11.26,83.4,0.01968501,0,860.117,0,56.99,2.666,201,1.507,2.285,0,0,52.88,60.86,34,35.88
"2018-01-11 23:30:00",322906,0.67,149.5,-11.25,82.8,0,0,860.1622,0,57.04,2.665,198,1.506,2.285,0.05314428,0,52.88,60.86,34,35.88
"2018-01-11 23:40:00",322907,0.599,135.5,-11.23,82.5,0,0,860.1785,0,56.82,2.667,198,1.506,2.285,0.06832836,0,52.88,60.86,34,35.88
"2018-01-11 23:50:00",322908,0.667,145.1,-11.19,82.3,0,0,860.1929,0,56.9,2.666,197,1.503,2.285,0.04934826,0,52.88,60.86,34,35.88
